Menu Close Menu
Station Historical Data
Daily Summary for August 21, 2017 Units:  Metric    English   Both
« Previous Day
Next Day »
Daily Weekly Monthly Yearly Custom
  High: Low: Average:
Temperature: 34.2 °C 21.5 °C 26.6 °C
Dew Point: 23.3 °C 19.6 °C 21.2 °C
Humidity: 92% 46% 74%
Wind Speed: 1.6km/h 0km/h 0km/h
Wind Gust: 3.2km/h - -
Wind- - SE
Pressure: 1022.2 hPa 1019.2 hPa -
Precipitation: 0 mm    
Historical Graphs
 
 
Tabular Data for August 21, 2017
Time Temperature Dew Point Pressure Wind Wind Speed Wind Gust Humidity Rainfall Rate (Hourly) solar Conditions
00:00 24.1 °C 20.8 °C 1019.9 hPa Calm     82% 0 mm WeatherDisplay:10.37 W/m2 CLR
00:05 24.1 °C 20.8 °C 1019.9 hPa Calm     82% 0 mm WeatherDisplay:10.37 W/m2 CLR
00:10 24 °C 20.7 °C 1019.9 hPa Calm     82% 0 mm WeatherDisplay:10.37 W/m2 CLR
00:15 24.1 °C 21 °C 1019.9 hPa Calm     83% 0 mm WeatherDisplay:10.37 W/m2 CLR
00:20 23.9 °C 20.9 °C 1019.9 hPa Calm     83% 0 mm WeatherDisplay:10.37 W/m2 CLR
00:25 23.9 °C 20.8 °C 1019.9 hPa Calm     83% 0 mm WeatherDisplay:10.37 W/m2 CLR
00:30 23.8 °C 20.8 °C 1019.9 hPa Calm     83% 0 mm WeatherDisplay:10.37 W/m2 CLR
00:40 23.8 °C 20.9 °C 1020.2 hPa Calm     84% 0 mm WeatherDisplay:10.37 W/m2 CLR
00:45 23.7 °C 20.8 °C 1020.2 hPa Calm     84% 0 mm WeatherDisplay:10.37 W/m2 CLR
00:50 23.7 °C 20.8 °C 1020.2 hPa Calm     84% 0 mm WeatherDisplay:10.37 W/m2 CLR
00:55 23.6 °C 20.7 °C 1020.2 hPa Calm     84% 0 mm WeatherDisplay:10.37 W/m2 CLR
01:00 23.6 °C 20.7 °C 1020.2 hPa Calm     84% 0 mm WeatherDisplay:10.37 W/m2 CLR
01:05 23.5 °C 20.8 °C 1020.2 hPa Calm     85% 0 mm WeatherDisplay:10.37 W/m2 CLR
01:10 23.5 °C 20.8 °C 1020.2 hPa Calm     85% 0 mm WeatherDisplay:10.37 W/m2 CLR
01:15 23.4 °C 20.8 °C 1020.2 hPa Calm     85% 0 mm WeatherDisplay:10.37 W/m2 CLR
01:20 23.4 °C 20.7 °C 1020.2 hPa Calm     85% 0 mm WeatherDisplay:10.37 W/m2 CLR
01:25 23.3 °C 20.7 °C 1020.2 hPa Calm     85% 0 mm WeatherDisplay:10.37 W/m2 CLR
01:30 23.2 °C 20.6 °C 1020.2 hPa Calm     85% 0 mm WeatherDisplay:10.37 W/m2 CLR
01:35 23.2 °C 20.7 °C 1020.2 hPa Calm     86% 0 mm WeatherDisplay:10.37 W/m2 CLR
01:40 23.1 °C 20.7 °C 1020.2 hPa Calm     86% 0 mm WeatherDisplay:10.37 W/m2 CLR
01:45 23.1 °C 20.7 °C 1020.2 hPa Calm     86% 0 mm WeatherDisplay:10.37 W/m2 CLR
01:50 23.1 °C 20.6 °C 1020.2 hPa Calm     86% 0 mm WeatherDisplay:10.37 W/m2 CLR
01:55 23.1 °C 20.7 °C 1020.2 hPa Calm     86% 0 mm WeatherDisplay:10.37 W/m2 CLR
02:00 23.2 °C 20.7 °C 1020.2 hPa Calm     86% 0 mm WeatherDisplay:10.37 W/m2 CLR
02:10 22.9 °C 20.4 °C 1020.2 hPa Calm     86% 0 mm WeatherDisplay:10.37 W/m2 CLR
02:15 22.9 °C 20.6 °C 1020.2 hPa Calm     87% 0 mm WeatherDisplay:10.37 W/m2 CLR
02:20 22.8 °C 20.6 °C 1020.2 hPa Calm     87% 0 mm WeatherDisplay:10.37 W/m2 CLR
02:25 22.8 °C 20.6 °C 1020.5 hPa Calm     87% 0 mm WeatherDisplay:10.37 W/m2 CLR
02:30 22.8 °C 20.5 °C 1020.5 hPa Calm     87% 0 mm WeatherDisplay:10.37 W/m2 CLR
02:35 22.7 °C 20.4 °C 1020.5 hPa Calm     87% 0 mm WeatherDisplay:10.37 W/m2 CLR
02:40 22.7 °C 20.4 °C 1020.5 hPa Calm     87% 0 mm WeatherDisplay:10.37 W/m2 CLR
02:45 22.7 °C 20.6 °C 1020.5 hPa Calm     88% 0 mm WeatherDisplay:10.37 W/m2 CLR
02:50 22.7 °C 20.6 °C 1020.2 hPa Calm     88% 0 mm WeatherDisplay:10.37 W/m2 CLR
02:55 22.7 °C 20.6 °C 1020.5 hPa Calm     88% 0 mm WeatherDisplay:10.37 W/m2 CLR
03:00 22.7 °C 20.6 °C 1020.2 hPa Calm     88% 0 mm WeatherDisplay:10.37 W/m2 CLR
03:05 22.7 °C 20.6 °C 1020.2 hPa Calm     88% 0 mm WeatherDisplay:10.37 W/m2 CLR
03:10 22.6 °C 20.4 °C 1020.2 hPa Calm     88% 0 mm WeatherDisplay:10.37 W/m2 CLR
03:15 22.5 °C 20.4 °C 1020.2 hPa Calm     88% 0 mm WeatherDisplay:10.37 W/m2 CLR
03:20 22.4 °C 20.4 °C 1020.2 hPa Calm     88% 0 mm WeatherDisplay:10.37 W/m2 CLR
03:25 22.4 °C 20.6 °C 1020.2 hPa Calm     89% 0 mm WeatherDisplay:10.37 W/m2 CLR
03:30 22.4 °C 20.3 °C 1020.2 hPa Calm     88% 0 mm WeatherDisplay:10.37 W/m2 CLR
03:35 22.3 °C 20.4 °C 1020.2 hPa Calm     89% 0 mm WeatherDisplay:10.37 W/m2 CLR
03:40 22.3 °C 20.4 °C 1020.2 hPa Calm     89% 0 mm WeatherDisplay:10.37 W/m2 CLR
03:45 22.2 °C 20.3 °C 1020.2 hPa Calm     89% 0 mm WeatherDisplay:10.37 W/m2 CLR
03:50 22.2 °C 20.3 °C 1020.2 hPa Calm     89% 0 mm WeatherDisplay:10.37 W/m2 CLR
03:55 22.2 °C 20.3 °C 1020.2 hPa Calm     89% 0 mm WeatherDisplay:10.37 W/m2 CLR
04:00 22.1 °C 20.2 °C 1020.2 hPa Calm     89% 0 mm WeatherDisplay:10.37 W/m2 CLR
04:05 22.1 °C 20.4 °C 1020.2 hPa Calm     90% 0 mm WeatherDisplay:10.37 W/m2 CLR
04:10 22.1 °C 20.4 °C 1020.2 hPa Calm     90% 0 mm WeatherDisplay:10.37 W/m2 CLR
04:15 22.1 °C 20.3 °C 1020.2 hPa Calm     90% 0 mm WeatherDisplay:10.37 W/m2 CLR
04:20 22.1 °C 20.3 °C 1020.2 hPa Calm     90% 0 mm WeatherDisplay:10.37 W/m2 CLR
04:25 22 °C 20.3 °C 1020.2 hPa Calm     90% 0 mm WeatherDisplay:10.37 W/m2 CLR
04:30 22 °C 20.3 °C 1020.2 hPa Calm     90% 0 mm WeatherDisplay:10.37 W/m2 CLR
04:40 22 °C 20.3 °C 1020.2 hPa Calm     90% 0 mm WeatherDisplay:10.37 W/m2 CLR
04:45 22 °C 20.3 °C 1020.2 hPa Calm     90% 0 mm WeatherDisplay:10.37 W/m2 CLR
04:50 22 °C 20.3 °C 1020.2 hPa Calm     90% 0 mm WeatherDisplay:10.37 W/m2 CLR
04:55 22 °C 20.3 °C 1020.5 hPa Calm     90% 0 mm WeatherDisplay:10.37 W/m2 CLR
05:00 22.1 °C 20.3 °C 1020.5 hPa Calm     90% 0 mm WeatherDisplay:10.37 W/m2 CLR
05:05 22.1 °C 20.4 °C 1020.5 hPa Calm     90% 0 mm WeatherDisplay:10.37 W/m2 CLR
05:10 22.1 °C 20.4 °C 1020.9 hPa Calm     90% 0 mm WeatherDisplay:10.37 W/m2 CLR
05:15 22.1 °C 20.4 °C 1020.9 hPa Calm     90% 0 mm WeatherDisplay:10.37 W/m2 CLR
05:20 22.2 °C 20.4 °C 1020.9 hPa Calm     90% 0 mm WeatherDisplay:10.37 W/m2 CLR
05:25 22.2 °C 20.4 °C 1020.9 hPa Calm     90% 0 mm WeatherDisplay:10.37 W/m2 CLR
05:30 22.2 °C 20.4 °C 1020.9 hPa Calm     90% 0 mm WeatherDisplay:10.37 W/m2 CLR
05:35 22.2 °C 20.4 °C 1020.9 hPa Calm     90% 0 mm WeatherDisplay:10.37 W/m2 CLR
05:40 22.2 °C 20.4 °C 1020.9 hPa Calm     90% 0 mm WeatherDisplay:10.37 W/m2 CLR
05:45 22.2 °C 20.3 °C 1020.9 hPa Calm     89% 0 mm WeatherDisplay:10.37 W/m2 CLR
05:50 22.1 °C 20.4 °C 1020.9 hPa Calm     90% 0 mm WeatherDisplay:10.37 W/m2 CLR
05:55 22 °C 20.1 °C 1020.9 hPa Calm     89% 0 mm WeatherDisplay:10.37 W/m2 CLR
06:00 22 °C 20.3 °C 1020.9 hPa Calm     90% 0 mm WeatherDisplay:10.37 W/m2 CLR
06:05 21.9 °C 20.2 °C 1020.9 hPa Calm     90% 0 mm WeatherDisplay:10.37 W/m2 CLR
06:10 21.9 °C 20.2 °C 1020.9 hPa Calm     90% 0 mm WeatherDisplay:10.37 W/m2 CLR
06:15 21.9 °C 20.2 °C 1020.9 hPa Calm     90% 0 mm WeatherDisplay:10.37 W/m2 CLR
06:20 21.8 °C 20.1 °C 1020.9 hPa Calm     90% 0 mm WeatherDisplay:10.37 W/m2 CLR
06:25 21.7 °C 20 °C 1020.9 hPa Calm     90% 0 mm WeatherDisplay:10.37 W/m2 CLR
06:30 21.7 °C 19.9 °C 1020.9 hPa Calm     90% 0 mm WeatherDisplay:10.37 W/m2 CLR
06:40 21.6 °C 19.9 °C 1020.9 hPa Calm     90% 0 mm WeatherDisplay:10.37 W/m2 CLR
06:45 21.6 °C 20 °C 1020.9 hPa Calm     91% 0 mm WeatherDisplay:10.37 W/m2 CLR
06:50 21.6 °C 20 °C 1020.9 hPa Calm     91% 0 mm WeatherDisplay:10.37 W/m2 CLR
06:55 21.6 °C 20 °C 1021.2 hPa Calm     91% 0 mm WeatherDisplay:10.37 W/m2 CLR
07:00 21.6 °C 20 °C 1021.2 hPa Calm     91% 0 mm WeatherDisplay:10.37 W/m2 CLR
07:05 21.6 °C 20 °C 1021.2 hPa Calm     91% 0 mm WeatherDisplay:10.37 W/m2 CLR
07:10 21.5 °C 19.9 °C 1021.2 hPa Calm     91% 0 mm WeatherDisplay:10.37 W/m2 CLR
07:15 21.5 °C 19.9 °C 1021.2 hPa Calm     91% 0 mm WeatherDisplay:10.37 W/m2 CLR
07:20 21.6 °C 20.2 °C 1021.2 hPa Calm     92% 0 mm WeatherDisplay:10.37 W/m2 SCT
07:25 21.6 °C 20 °C 1021.2 hPa Calm     91% 0 mm WeatherDisplay:10.37 W/m2 SCT
07:30 21.6 °C 20 °C 1021.6 hPa Calm     91% 0 mm WeatherDisplay:10.37 W/m2 SCT
07:40 21.6 °C 20 °C 1021.6 hPa Calm     91% 0 mm WeatherDisplay:10.37 W/m2 SCT
07:45 21.6 °C 20.2 °C 1021.6 hPa Calm     92% 0 mm WeatherDisplay:10.37 W/m2 SCT
07:50 21.7 °C 20.3 °C 1021.6 hPa Calm     92% 0 mm WeatherDisplay:10.37 W/m2 SCT
07:55 21.7 °C 20.4 °C 1021.6 hPa Calm     92% 0 mm WeatherDisplay:10.37 W/m2 SCT
08:00 21.8 °C 20.4 °C 1021.6 hPa Calm     92% 0 mm WeatherDisplay:10.37 W/m2 SCT
08:10 22 °C 20.7 °C 1021.6 hPa Calm     92% 0 mm WeatherDisplay:10.37 W/m2 SCT
08:15 22.2 °C 20.8 °C 1021.6 hPa Calm     92% 0 mm WeatherDisplay:10.37 W/m2 SCT
08:20 22.4 °C 21.1 °C 1021.6 hPa Calm     92% 0 mm WeatherDisplay:10.37 W/m2 SCT
08:25 22.6 °C 21.1 °C 1021.6 hPa Calm     91% 0 mm WeatherDisplay:10.37 W/m2 SCT
08:30 22.9 °C 21.2 °C 1021.6 hPa Calm     90% 0 mm WeatherDisplay:10.37 W/m2 SCT
08:35 23.1 °C 21.4 °C 1021.6 hPa Calm     90% 0 mm WeatherDisplay:10.37 W/m2 SCT
08:40 23.3 °C 21.4 °C 1021.6 hPa Calm     89% 0 mm WeatherDisplay:10.37 W/m2 SCT
08:45 23.7 °C 21.6 °C 1021.6 hPa Calm     88% 0 mm WeatherDisplay:10.37 W/m2 SCT
08:50 23.9 °C 21.6 °C 1021.6 hPa Calm     87% 0 mm WeatherDisplay:10.37 W/m2 SCT
08:55 24.1 °C 21.8 °C 1021.9 hPa Calm     87% 0 mm WeatherDisplay:10.37 W/m2 SCT
09:00 24.4 °C 21.9 °C 1021.9 hPa Calm     86% 0 mm WeatherDisplay:10.37 W/m2 SCT
09:05 24.7 °C 22 °C 1021.9 hPa Calm     85% 0 mm WeatherDisplay:10.37 W/m2 SCT
09:10 25 °C 22.1 °C 1021.9 hPa Calm     84% 0 mm WeatherDisplay:10.37 W/m2 SCT
09:15 25.3 °C 22.2 °C 1021.9 hPa Calm     83% 0 mm WeatherDisplay:10.37 W/m2 SCT
09:20 25.6 °C 22.3 °C 1021.9 hPa Calm     82% 0 mm WeatherDisplay:10.37 W/m2 SCT
09:25 26 °C 22.5 °C 1021.9 hPa Calm     81% 0 mm WeatherDisplay:10.37 W/m2 SCT
09:30 26.2 °C 22.4 °C 1021.9 hPa Calm     80% 0 mm WeatherDisplay:10.37 W/m2 SCT
09:35 26.3 °C 22.6 °C 1021.9 hPa Calm     80% 0 mm WeatherDisplay:10.37 W/m2 SCT
09:40 26.5 °C 22.6 °C 1021.9 hPa Calm     79% 0 mm WeatherDisplay:10.37 W/m2 SCT
09:45 26.7 °C 22.8 °C 1021.9 hPa Calm     79% 0 mm WeatherDisplay:10.37 W/m2 SCT
09:50 26.9 °C 22.7 °C 1021.9 hPa Calm     78% 0 mm WeatherDisplay:10.37 W/m2 SCT
09:55 27.2 °C 23 °C 1021.9 hPa Calm     78% 0 mm WeatherDisplay:10.37 W/m2 SCT
10:00 27.6 °C 22.9 °C 1021.9 hPa Calm     76% 0 mm WeatherDisplay:10.37 W/m2 SCT
10:05 27.9 °C 23.3 °C 1021.9 hPa Calm     76% 0 mm WeatherDisplay:10.37 W/m2 SCT
10:10 28.1 °C 23 °C 1021.9 hPa Calm     74% 0 mm WeatherDisplay:10.37 W/m2 SCT
10:15 28.2 °C 22.7 °C 1021.9 hPa Calm   1.6 km/h 72% 0 mm WeatherDisplay:10.37 W/m2 SCT
10:20 28.4 °C 22.9 °C 1021.9 hPa Calm   1.6 km/h 72% 0 mm WeatherDisplay:10.37 W/m2 SCT
10:25 28.6 °C 22.8 °C 1021.9 hPa Calm   1.6 km/h 71% 0 mm WeatherDisplay:10.37 W/m2 SCT
10:30 28.8 °C 23 °C 1022.2 hPa Calm   1.6 km/h 71% 0 mm WeatherDisplay:10.37 W/m2 SCT
10:40 29.1 °C 23.1 °C 1022.2 hPa Calm     70% 0 mm WeatherDisplay:10.37 W/m2 SCT
10:45 29.1 °C 22.8 °C 1022.2 hPa Calm   1.6 km/h 69% 0 mm WeatherDisplay:10.37 W/m2 SCT
10:50 29.1 °C 22.1 °C 1022.2 hPa Calm   1.6 km/h 66% 0 mm WeatherDisplay:10.37 W/m2 SCT
10:55 29.1 °C 22.3 °C 1022.2 hPa Calm   1.6 km/h 67% 0 mm WeatherDisplay:10.37 W/m2 SCT
11:00 29.3 °C 22.8 °C 1022.2 hPa Calm   3.2 km/h 68% 0 mm WeatherDisplay:10.37 W/m2 SCT
11:05 29.4 °C 22.7 °C 1021.9 hPa Calm   1.6 km/h 67% 0 mm WeatherDisplay:10.37 W/m2 SCT
11:10 29.6 °C 22.3 °C 1022.2 hPa Calm   3.2 km/h 65% 0 mm WeatherDisplay:10.37 W/m2 SCT
11:15 29.6 °C 22.3 °C 1021.9 hPa Calm   3.2 km/h 65% 0 mm WeatherDisplay:10.37 W/m2 SCT
11:20 29.8 °C 22.2 °C 1022.2 hPa Calm   1.6 km/h 64% 0 mm WeatherDisplay:10.37 W/m2 SCT
11:25 29.9 °C 21.9 °C 1022.2 hPa Calm   1.6 km/h 62% 0 mm WeatherDisplay:10.37 W/m2 SCT
11:30 30 °C 21.9 °C 1021.9 hPa Calm   3.2 km/h 62% 0 mm WeatherDisplay:10.37 W/m2 SCT
11:35 30.1 °C 21.5 °C 1021.9 hPa Calm   1.6 km/h 60% 0 mm WeatherDisplay:10.37 W/m2 SCT
11:40 30.2 °C 21.6 °C 1021.9 hPa Calm   1.6 km/h 60% 0 mm WeatherDisplay:10.37 W/m2 SCT
11:45 30.5 °C 22.2 °C 1022.2 hPa Calm   1.6 km/h 61% 0 mm WeatherDisplay:10.37 W/m2 SCT
11:50 30.7 °C 21.2 °C 1021.9 hPa Calm   1.6 km/h 57% 0 mm WeatherDisplay:10.37 W/m2 SCT
11:55 30.7 °C 21.4 °C 1021.9 hPa Calm   1.6 km/h 58% 0 mm WeatherDisplay:10.37 W/m2 SCT
12:00 30.8 °C 21.9 °C 1021.9 hPa Calm   3.2 km/h 59% 0 mm WeatherDisplay:10.37 W/m2 SCT
12:05 30.9 °C 20.8 °C 1021.9 hPa Calm   1.6 km/h 55% 0 mm WeatherDisplay:10.37 W/m2 SCT
12:10 31.2 °C 21.1 °C 1021.9 hPa Calm   1.6 km/h 55% 0 mm WeatherDisplay:10.37 W/m2 SCT
12:15 31.2 °C 21.7 °C 1021.9 hPa Calm   3.2 km/h 57% 0 mm WeatherDisplay:10.37 W/m2 SCT
12:20 31.6 °C 21.4 °C 1021.9 hPa Calm   3.2 km/h 55% 0 mm WeatherDisplay:10.37 W/m2 BKN
12:25 31.9 °C 20.8 °C 1021.9 hPa Calm   3.2 km/h 52% 0 mm WeatherDisplay:10.37 W/m2 BKN
12:30 32.2 °C 21.4 °C 1021.9 hPa WSW 1.6 km/h 3.2 km/h 53% 0 mm WeatherDisplay:10.37 W/m2 BKN
12:35 32.5 °C 20.4 °C 1021.9 hPa Calm   1.6 km/h 49% 0 mm WeatherDisplay:10.37 W/m2 BKN
12:40 32.7 °C 19.6 °C 1021.9 hPa Calm   1.6 km/h 46% 0 mm WeatherDisplay:10.37 W/m2 BKN
12:45 32.8 °C 20.7 °C 1021.9 hPa North 1.6 km/h 1.6 km/h 49% 0 mm WeatherDisplay:10.37 W/m2 BKN
12:50 33.3 °C 21.1 °C 1021.9 hPa Calm   1.6 km/h 49% 0 mm WeatherDisplay:10.37 W/m2 BKN
12:55 33.8 °C 21.9 °C 1021.6 hPa Calm   1.6 km/h 50% 0 mm WeatherDisplay:10.37 W/m2 BKN
13:00 34.2 °C 20.9 °C 1021.6 hPa Calm   1.6 km/h 46% 0 mm WeatherDisplay:10.37 W/m2 BKN
13:10 33.8 °C 21.2 °C 1021.6 hPa Calm   1.6 km/h 48% 0 mm WeatherDisplay:10.37 W/m2 BKN
13:15 33.8 °C 20.9 °C 1021.6 hPa Calm   1.6 km/h 47% 0 mm WeatherDisplay:10.37 W/m2 BKN
13:20 33.8 °C 21.3 °C 1021.6 hPa Calm   1.6 km/h 48% 0 mm WeatherDisplay:10.37 W/m2 SCT
13:25 33.8 °C 20.6 °C 1021.6 hPa Calm   1.6 km/h 46% 0 mm WeatherDisplay:10.37 W/m2 SCT
13:30 33.8 °C 20.9 °C 1021.6 hPa Calm   1.6 km/h 47% 0 mm WeatherDisplay:10.37 W/m2 SCT
13:35 33.6 °C 21 °C 1021.6 hPa Calm   1.6 km/h 48% 0 mm WeatherDisplay:10.37 W/m2 SCT
13:40 33.3 °C 21.4 °C 1021.6 hPa Calm   1.6 km/h 50% 0 mm WeatherDisplay:10.37 W/m2 SCT
13:45 33.2 °C 22.1 °C 1021.2 hPa Calm   1.6 km/h 52% 0 mm WeatherDisplay:10.37 W/m2 SCT
13:50 33.1 °C 20.9 °C 1021.2 hPa Calm   3.2 km/h 49% 0 mm WeatherDisplay:10.37 W/m2 SCT
13:55 32.8 °C 21.7 °C 1021.2 hPa Calm   1.6 km/h 52% 0 mm WeatherDisplay:10.37 W/m2 SCT
14:00 32.9 °C 20.8 °C 1021.2 hPa Calm     49% 0 mm WeatherDisplay:10.37 W/m2 SCT
14:05 32.9 °C 20.8 °C 1021.2 hPa Calm   1.6 km/h 49% 0 mm WeatherDisplay:10.37 W/m2 SCT
14:10 32.8 °C 20.3 °C 1020.9 hPa Calm     48% 0 mm WeatherDisplay:10.37 W/m2 SCT
14:15 32.7 °C 20.9 °C 1020.9 hPa Calm   1.6 km/h 50% 0 mm WeatherDisplay:10.37 W/m2 SCT
14:20 32.4 °C 21 °C 1020.9 hPa Calm     51% 0 mm WeatherDisplay:10.37 W/m2 SCT
14:25 32.2 °C 20.8 °C 1020.9 hPa Calm     51% 0 mm WeatherDisplay:10.37 W/m2 SCT
14:30 31.9 °C 21.2 °C 1020.5 hPa Calm     53% 0 mm WeatherDisplay:10.37 W/m2 SCT
14:40 30.2 °C 21.3 °C 1020.5 hPa Calm     59% 0 mm WeatherDisplay:10.37 W/m2 SCT
14:45 29.5 °C 21.2 °C 1020.5 hPa Calm     61% 0 mm WeatherDisplay:10.37 W/m2 SCT
14:50 29.2 °C 21.4 °C 1020.5 hPa Calm     63% 0 mm WeatherDisplay:10.37 W/m2 SCT
14:55 28.9 °C 21.7 °C 1020.5 hPa Calm     65% 0 mm WeatherDisplay:10.37 W/m2 SCT
15:00 28.8 °C 21.6 °C 1020.2 hPa Calm     65% 0 mm WeatherDisplay:10.37 W/m2 SCT
15:10 28.8 °C 21.8 °C 1020.2 hPa Calm     66% 0 mm WeatherDisplay:10.37 W/m2 SCT
15:15 29 °C 22.2 °C 1020.2 hPa Calm     67% 0 mm WeatherDisplay:10.37 W/m2 SCT
15:20 29.2 °C 22.4 °C 1019.9 hPa Calm     67% 0 mm WeatherDisplay:10.37 W/m2 SCT
15:25 29.5 °C 22.2 °C 1019.9 hPa Calm     65% 0 mm WeatherDisplay:10.37 W/m2 SCT
15:35 30 °C 21.9 °C 1019.9 hPa Calm   1.6 km/h 62% 0 mm WeatherDisplay:10.37 W/m2 FEW
15:40 30.3 °C 22.2 °C 1019.9 hPa Calm   1.6 km/h 62% 0 mm WeatherDisplay:10.37 W/m2 FEW
15:45 30.5 °C 21.8 °C 1019.9 hPa Calm     60% 0 mm WeatherDisplay:10.37 W/m2 FEW
15:50 30.8 °C 22.1 °C 1019.9 hPa Calm     60% 0 mm WeatherDisplay:10.37 W/m2 FEW
15:55 30.9 °C 21.4 °C 1019.9 hPa Calm   1.6 km/h 57% 0 mm WeatherDisplay:10.37 W/m2 FEW
16:00 31.2 °C 21.9 °C 1019.9 hPa Calm   1.6 km/h 58% 0 mm WeatherDisplay:10.37 W/m2 FEW
16:05 31.2 °C 21.7 °C 1019.9 hPa Calm   1.6 km/h 57% 0 mm WeatherDisplay:10.37 W/m2 FEW
16:10 31.1 °C 21.5 °C 1019.9 hPa Calm   1.6 km/h 57% 0 mm WeatherDisplay:10.37 W/m2 FEW
16:15 30.9 °C 21.4 °C 1019.9 hPa Calm   1.6 km/h 57% 0 mm WeatherDisplay:10.37 W/m2 FEW
16:20 30.9 °C 21.7 °C 1019.9 hPa Calm   1.6 km/h 58% 0 mm WeatherDisplay:10.37 W/m2 FEW
16:25 31.1 °C 21.8 °C 1019.5 hPa Calm   1.6 km/h 58% 0 mm WeatherDisplay:10.37 W/m2 FEW
16:45 31.3 °C 21.5 °C 1019.5 hPa Calm     56% 0 mm WeatherDisplay:10.37 W/m2 FEW
17:05 31.1 °C 21 °C 1019.5 hPa Calm   1.6 km/h 55% 0 mm WeatherDisplay:10.37 W/m2 FEW
17:15 30.9 °C 21.4 °C 1019.5 hPa Calm     57% 0 mm WeatherDisplay:10.37 W/m2 FEW
17:20 31.2 °C 22.2 °C 1019.5 hPa Calm   1.6 km/h 59% 0 mm WeatherDisplay:10.37 W/m2 FEW
17:25 31.4 °C 21.9 °C 1019.2 hPa Calm   1.6 km/h 57% 0 mm WeatherDisplay:10.37 W/m2 FEW
17:30 31.6 °C 21.7 °C 1019.5 hPa Calm   1.6 km/h 56% 0 mm WeatherDisplay:10.37 W/m2 FEW
17:35 31.7 °C 21.3 °C 1019.5 hPa Calm   1.6 km/h 54% 0 mm WeatherDisplay:10.37 W/m2 FEW
17:40 31.9 °C 21.5 °C 1019.5 hPa Calm   1.6 km/h 54% 0 mm WeatherDisplay:10.37 W/m2 FEW
17:45 32.2 °C 22.3 °C 1019.5 hPa Calm     56% 0 mm WeatherDisplay:10.37 W/m2 FEW
17:50 31.9 °C 21.4 °C 1019.5 hPa Calm   1.6 km/h 54% 0 mm WeatherDisplay:10.37 W/m2 FEW
17:55 31.7 °C 20.9 °C 1019.5 hPa Calm   1.6 km/h 53% 0 mm WeatherDisplay:10.37 W/m2 FEW
18:00 31.6 °C 21.4 °C 1019.5 hPa Calm   1.6 km/h 55% 0 mm WeatherDisplay:10.37 W/m2 FEW
18:05 31.4 °C 21.6 °C 1019.5 hPa Calm   3.2 km/h 56% 0 mm WeatherDisplay:10.37 W/m2 FEW
18:10 31.2 °C 21.6 °C 1019.5 hPa Calm   1.6 km/h 57% 0 mm WeatherDisplay:10.37 W/m2 FEW
18:15 31.1 °C 21.2 °C 1019.5 hPa Calm     56% 0 mm WeatherDisplay:10.37 W/m2 FEW
18:20 30.9 °C 21.4 °C 1019.5 hPa Calm   1.6 km/h 57% 0 mm WeatherDisplay:10.37 W/m2 FEW
18:25 30.9 °C 21.4 °C 1019.5 hPa Calm     57% 0 mm WeatherDisplay:10.37 W/m2 FEW
18:30 30.8 °C 21.8 °C 1019.5 hPa Calm     59% 0 mm WeatherDisplay:10.37 W/m2 FEW
18:35 30.6 °C 21.7 °C 1019.5 hPa Calm   1.6 km/h 59% 0 mm WeatherDisplay:10.37 W/m2 FEW
18:40 30.5 °C 21.6 °C 1019.5 hPa Calm   1.6 km/h 59% 0 mm WeatherDisplay:10.37 W/m2 FEW
18:45 30.4 °C 21.6 °C 1019.5 hPa Calm   1.6 km/h 59% 0 mm WeatherDisplay:10.37 W/m2 FEW
18:50 30.3 °C 21.4 °C 1019.5 hPa Calm     59% 0 mm WeatherDisplay:10.37 W/m2 FEW
18:55 30.3 °C 21.9 °C 1019.5 hPa Calm     61% 0 mm WeatherDisplay:10.37 W/m2 FEW
19:00 30.2 °C 21.8 °C 1019.5 hPa Calm     61% 0 mm WeatherDisplay:10.37 W/m2 FEW
19:10 29.9 °C 21.3 °C 1019.5 hPa Calm   1.6 km/h 60% 0 mm WeatherDisplay:10.37 W/m2 FEW
19:15 29.9 °C 21.6 °C 1019.5 hPa Calm     61% 0 mm WeatherDisplay:10.37 W/m2 FEW
19:20 29.7 °C 21.9 °C 1019.5 hPa Calm     63% 0 mm WeatherDisplay:10.37 W/m2 FEW
19:25 29.6 °C 21.8 °C 1019.5 hPa Calm     63% 0 mm WeatherDisplay:10.37 W/m2 FEW
19:30 29.4 °C 21.6 °C 1019.5 hPa Calm     63% 0 mm WeatherDisplay:10.37 W/m2 FEW
19:35 29.2 °C 21.7 °C 1019.5 hPa Calm     64% 0 mm WeatherDisplay:10.37 W/m2 FEW
19:40 29.1 °C 21.8 °C 1019.5 hPa Calm     65% 0 mm WeatherDisplay:10.37 W/m2 FEW
19:45 28.9 °C 21.9 °C 1019.5 hPa Calm     66% 0 mm WeatherDisplay:10.37 W/m2 FEW
19:50 28.7 °C 21.7 °C 1019.5 hPa Calm     66% 0 mm WeatherDisplay:10.37 W/m2 FEW
19:55 28.5 °C 21.8 °C 1019.5 hPa Calm     67% 0 mm WeatherDisplay:10.37 W/m2 FEW
20:00 28.3 °C 21.6 °C 1019.5 hPa Calm     67% 0 mm WeatherDisplay:10.37 W/m2 FEW
20:05 28.2 °C 21.5 °C 1019.5 hPa Calm     67% 0 mm WeatherDisplay:10.37 W/m2 FEW
20:10 28.1 °C 21.6 °C 1019.5 hPa Calm     68% 0 mm WeatherDisplay:10.37 W/m2 FEW
20:15 27.9 °C 21.4 °C 1019.5 hPa Calm     68% 0 mm WeatherDisplay:10.37 W/m2 FEW
20:20 27.8 °C 21.6 °C 1019.9 hPa Calm     69% 0 mm WeatherDisplay:10.37 W/m2 FEW
20:30 27.6 °C 21.3 °C 1019.9 hPa Calm     69% 0 mm WeatherDisplay:10.37 W/m2 FEW
20:35 27.5 °C 21.5 °C 1019.9 hPa Calm     70% 0 mm WeatherDisplay:10.37 W/m2 FEW
20:40 27.4 °C 21.7 °C 1019.9 hPa Calm     71% 0 mm WeatherDisplay:10.37 W/m2 FEW
20:45 27.3 °C 21.6 °C 1019.9 hPa Calm     71% 0 mm WeatherDisplay:10.37 W/m2 FEW
20:50 27.2 °C 21.5 °C 1019.9 hPa Calm     71% 0 mm WeatherDisplay:10.37 W/m2 FEW
20:55 27.1 °C 21.4 °C 1020.2 hPa Calm     71% 0 mm WeatherDisplay:10.37 W/m2 FEW
21:00 27 °C 21.7 °C 1020.2 hPa Calm     73% 0 mm WeatherDisplay:10.37 W/m2 FEW
21:05 26.9 °C 21.6 °C 1020.2 hPa Calm     73% 0 mm WeatherDisplay:10.37 W/m2 FEW
21:10 26.8 °C 21.5 °C 1020.2 hPa Calm     73% 0 mm WeatherDisplay:10.37 W/m2 FEW
21:15 26.6 °C 21.6 °C 1020.2 hPa Calm     74% 0 mm WeatherDisplay:10.37 W/m2 FEW
21:20 26.5 °C 21.5 °C 1020.2 hPa Calm     74% 0 mm WeatherDisplay:10.37 W/m2 FEW
21:25 26.4 °C 21.6 °C 1020.2 hPa Calm     75% 0 mm WeatherDisplay:10.37 W/m2 FEW
21:30 26.3 °C 21.5 °C 1020.5 hPa Calm     75% 0 mm WeatherDisplay:10.37 W/m2 FEW
21:35 26.2 °C 21.4 °C 1020.5 hPa Calm     75% 0 mm WeatherDisplay:10.37 W/m2 FEW
21:40 26.1 °C 21.6 °C 1020.5 hPa Calm     76% 0 mm WeatherDisplay:10.37 W/m2 FEW
21:45 26 °C 21.7 °C 1020.5 hPa Calm     77% 0 mm WeatherDisplay:10.37 W/m2 FEW
21:50 25.9 °C 21.6 °C 1020.5 hPa Calm     77% 0 mm WeatherDisplay:10.37 W/m2 FEW
21:55 25.9 °C 21.6 °C 1020.5 hPa Calm     77% 0 mm WeatherDisplay:10.37 W/m2 FEW
22:00 25.8 °C 21.5 °C 1020.9 hPa Calm     77% 0 mm WeatherDisplay:10.37 W/m2 FEW
22:05 25.7 °C 21.6 °C 1020.9 hPa Calm     78% 0 mm WeatherDisplay:10.37 W/m2 FEW
22:10 25.7 °C 21.6 °C 1020.9 hPa Calm     78% 0 mm WeatherDisplay:10.37 W/m2 FEW
22:20 25.4 °C 21.5 °C 1020.9 hPa Calm     79% 0 mm WeatherDisplay:10.37 W/m2 FEW
22:25 25.3 °C 21.4 °C 1020.9 hPa Calm     79% 0 mm WeatherDisplay:10.37 W/m2 FEW
22:30 25.3 °C 21.6 °C 1020.9 hPa Calm     80% 0 mm WeatherDisplay:10.37 W/m2 FEW
22:35 25.2 °C 21.5 °C 1020.5 hPa Calm     80% 0 mm WeatherDisplay:10.37 W/m2 FEW
22:40 25.1 °C 21.4 °C 1020.9 hPa Calm     80% 0 mm WeatherDisplay:10.37 W/m2 FEW
22:45 25.1 °C 21.6 °C 1020.9 hPa Calm     81% 0 mm WeatherDisplay:10.37 W/m2 FEW
22:50 24.9 °C 21.4 °C 1020.9 hPa Calm     81% 0 mm WeatherDisplay:10.37 W/m2 FEW
22:55 24.9 °C 21.4 °C 1020.9 hPa Calm     81% 0 mm WeatherDisplay:10.37 W/m2 FEW
23:00 24.8 °C 21.6 °C 1020.9 hPa Calm     82% 0 mm WeatherDisplay:10.37 W/m2 FEW
23:05 24.8 °C 21.5 °C 1020.9 hPa Calm     82% 0 mm WeatherDisplay:10.37 W/m2 FEW
23:10 24.7 °C 21.4 °C 1020.9 hPa Calm     82% 0 mm WeatherDisplay:10.37 W/m2 FEW
23:20 24.6 °C 21.5 °C 1020.9 hPa Calm     83% 0 mm WeatherDisplay:10.37 W/m2 CLR
23:30 24.5 °C 21.4 °C 1020.9 hPa Calm     83% 0 mm WeatherDisplay:10.37 W/m2 CLR
23:35 24.4 °C 21.3 °C 1020.9 hPa Calm     83% 0 mm WeatherDisplay:10.37 W/m2 CLR
23:40 24.3 °C 21.4 °C 1020.9 hPa Calm     84% 0 mm WeatherDisplay:10.37 W/m2 CLR
23:50 24.2 °C 21.6 °C 1021.2 hPa Calm     85% 0 mm WeatherDisplay:10.37 W/m2 CLR
23:55 24.2 °C 21.5 °C 1021.2 hPa Calm     85% 0 mm WeatherDisplay:10.37 W/m2 CLR
Piedmont Bend
Compliments of Weather Underground - 4 mb